| time (UTC) | temp F | wind direction | speed MPH | gust MPH | rain 1hr in | rain 24hr in | rain mn in | humidity % | barometer mb |
| 20260505192904 | 58 | 333 | 3.0 | 6.0 | 0.00 | 0.00 | 0.00 | 72 | 1010.8 |
| 20260505192403 | 58 | 329 | 3.0 | 5.0 | 0.00 | 0.00 | 0.00 | 72 | 1010.8 |
| 20260505191904 | 58 | 337 | 3.0 | 5.0 | 0.00 | 0.00 | 0.00 | 72 | 1010.8 |
| 20260505191404 | 58 | 17 | 2.0 | 5.0 | 0.00 | 0.00 | 0.00 | 72 | 1010.8 |
| 20260505190903 | 58 | 339 | 2.0 | 3.0 | 0.00 | 0.00 | 0.00 | 71 | 1010.7 |
| 20260505190403 | 58 | 7 | 2.0 | 5.0 | 0.00 | 0.00 | 0.00 | 71 | 1010.7 |
| 20260505185903 | 58 | 356 | 2.0 | 5.0 | 0.00 | 0.00 | 0.00 | 70 | 1010.7 |
| 20260505185403 | 59 | 353 | 3.0 | 6.0 | 0.00 | 0.00 | 0.00 | 70 | 1010.7 |
| 20260505184903 | 59 | 358 | 2.0 | 5.0 | 0.00 | 0.00 | 0.00 | 70 | 1010.7 |
| 20260505184404 | 59 | 2 | 3.0 | 5.0 | 0.00 | 0.00 | 0.00 | 69 | 1010.5 |
| 20260505183904 | 59 | 343 | 3.0 | 5.0 | 0.00 | 0.00 | 0.00 | 69 | 1010.5 |
| 20260505183403 | 59 | 339 | 2.0 | 5.0 | 0.00 | 0.00 | 0.00 | 69 | 1010.5 |
| 20260505182404 | 59 | 339 | 3.0 | 5.0 | 0.00 | 0.00 | 0.00 | 69 | 1010.6 |
| 20260505181904 | 59 | 341 | 3.0 | 5.0 | 0.00 | 0.00 | 0.00 | 69 | 1010.6 |
| 20260505181403 | 59 | 16 | 2.0 | 5.0 | 0.00 | 0.00 | 0.00 | 68 | 1010.6 |
| 20260505175904 | 59 | 8 | 2.0 | 6.0 | 0.00 | 0.00 | 0.00 | 68 | 1010.6 |
| 20260505175404 | 59 | 7 | 3.0 | 5.0 | 0.00 | 0.00 | 0.00 | 68 | 1010.6 |
| 20260505174904 | 59 | 341 | 3.0 | 6.0 | 0.00 | 0.00 | 0.00 | 68 | 1010.6 |
| 20260505174404 | 59 | 346 | 3.0 | 6.0 | 0.00 | 0.00 | 0.00 | 67 | 1010.8 |
| 20260505173903 | 60 | 337 | 2.0 | 5.0 | 0.00 | 0.00 | 0.00 | 67 | 1010.8 |
| 20260505173403 | 60 | 8 | 1.0 | 5.0 | 0.00 | 0.00 | 0.00 | 67 | 1010.8 |
| 20260505172904 | 60 | 344 | 2.0 | 6.0 | 0.00 | 0.00 | 0.00 | 67 | 1010.8 |
| 20260505172404 | 60 | 349 | 3.0 | 5.0 | 0.00 | 0.00 | 0.00 | 66 | 1010.8 |
| 20260505171903 | 60 | 356 | 3.0 | 7.0 | 0.00 | 0.00 | 0.00 | 65 | 1010.8 |
| 20260505171404 | 60 | 0 | 3.0 | 8.0 | 0.00 | 0.00 | 0.00 | 65 | 1010.8 |
| 20260505170403 | 60 | 15 | 3.0 | 6.0 | 0.00 | 0.00 | 0.00 | 66 | 1010.8 |
| 20260505165904 | 60 | 4 | 5.0 | 8.0 | 0.00 | 0.00 | 0.00 | 66 | 1010.8 |
| 20260505165403 | 60 | 15 | 5.0 | 7.0 | 0.00 | 0.00 | 0.00 | 65 | 1010.8 |
| 20260505164903 | 60 | 0 | 3.0 | 7.0 | 0.00 | 0.00 | 0.00 | 65 | 1010.8 |
| 20260505164404 | 60 | 3 | 3.0 | 6.0 | 0.00 | 0.00 | 0.00 | 65 | 1010.7 |
| 20260505163904 | 61 | 71 | 4.0 | 9.0 | 0.00 | 0.00 | 0.00 | 66 | 1010.7 |
| 20260505163404 | 61 | 20 | 2.0 | 6.0 | 0.00 | 0.00 | 0.00 | 65 | 1010.7 |
| 20260505162903 | 61 | 36 | 2.0 | 7.0 | 0.00 | 0.00 | 0.00 | 64 | 1010.7 |
| 20260505162404 | 61 | 32 | 3.0 | 6.0 | 0.00 | 0.00 | 0.00 | 64 | 1010.7 |
| 20260505160903 | 61 | 357 | 3.0 | 6.0 | 0.00 | 0.00 | 0.00 | 65 | 1010.8 |
| 20260505160403 | 61 | 14 | 2.0 | 7.0 | 0.00 | 0.00 | 0.00 | 66 | 1010.8 |
| 20260505152904 | 61 | 337 | 3.0 | 7.0 | 0.00 | 0.00 | 0.00 | 63 | 1011.0 |
| 20260505152403 | 61 | 31 | 5.0 | 8.0 | 0.00 | 0.00 | 0.00 | 62 | 1010.9 |
| 20260505151904 | 62 | 10 | 2.0 | 5.0 | 0.00 | 0.00 | 0.00 | 62 | 1010.9 |
| 20260505151403 | 62 | 338 | 2.0 | 7.0 | 0.00 | 0.00 | 0.00 | 61 | 1011.2 |
| 20260505150904 | 62 | 46 | 3.0 | 6.0 | 0.00 | 0.00 | 0.00 | 61 | 1011.2 |
| 20260505150404 | 61 | 6 | 2.0 | 5.0 | 0.00 | 0.00 | 0.00 | 63 | 1011.2 |
| 20260505140403 | 62 | 37 | 5.0 | 6.0 | 0.00 | 0.00 | 0.00 | 64 | 1011.3 |
| 20260505124904 | 59 | 24 | 7.0 | 15.0 | 0.00 | 0.00 | 0.00 | 67 | 1011.7 |
| 20260505124404 | 60 | 321 | 7.0 | 14.0 | 0.00 | 0.00 | 0.00 | 67 | 1011.7 |
| 20260505123904 | 60 | 24 | 5.0 | 9.0 | 0.00 | 0.00 | 0.00 | 69 | 1011.7 |
| 20260505123403 | 59 | 351 | 9.0 | 14.0 | 0.00 | 0.00 | 0.00 | 69 | 1011.7 |
| 20260505122904 | 59 | 35 | 7.0 | 14.0 | 0.00 | 0.00 | 0.00 | 69 | 1011.6 |
| 20260505122404 | 59 | 18 | 7.0 | 12.0 | 0.00 | 0.00 | 0.00 | 68 | 1011.6 |
| 20260505121404 | 60 | 6 | 10.0 | 14.0 | 0.00 | 0.00 | 0.00 | 66 | 1011.6 |
| 20260505120904 | 60 | 16 | 8.0 | 14.0 | 0.00 | 0.00 | 0.00 | 66 | 1011.6 |
| 20260505115904 | 59 | 3 | 8.0 | 14.0 | 0.00 | 0.00 | 0.00 | 67 | 1011.6 |
| 20260505114904 | 59 | 327 | 8.0 | 14.0 | 0.00 | 0.00 | 0.00 | 67 | 1011.6 |
| 20260505114403 | 59 | 14 | 7.0 | 13.0 | 0.00 | 0.00 | 0.00 | 66 | 1011.6 |
| 20260505113403 | 60 | 25 | 9.0 | 17.0 | 0.00 | 0.00 | 0.00 | 66 | 1011.6 |
| 20260505112904 | 60 | 15 | 6.0 | 12.0 | 0.00 | 0.00 | 0.00 | 67 | 1011.8 |
| 20260505112403 | 60 | 8 | 7.0 | 15.0 | 0.00 | 0.00 | 0.00 | 64 | 1011.8 |
| 20260505111903 | 61 | 339 | 6.0 | 10.0 | 0.00 | 0.00 | 0.00 | 66 | 1011.8 |
| 20260505111404 | 60 | 28 | 10.0 | 15.0 | 0.00 | 0.00 | 0.00 | 66 | 1011.8 |
| 20260505110903 | 61 | 29 | 9.0 | 16.0 | 0.00 | 0.00 | 0.00 | 64 | 1011.8 |
| 20260505110403 | 61 | 66 | 7.0 | 15.0 | 0.00 | 0.00 | 0.00 | 66 | 1011.8 |
| 20260505101904 | 61 | 22 | 8.0 | 16.0 | 0.00 | 0.00 | 0.00 | 67 | 1012.1 |
| 20260505101403 | 60 | 29 | 6.0 | 12.0 | 0.00 | 0.00 | 0.00 | 70 | 1012.1 |
| 20260505100403 | 60 | 24 | 7.0 | 13.0 | 0.00 | 0.00 | 0.00 | 71 | 1012.1 |
| 20260505095404 | 59 | 344 | 7.0 | 15.0 | 0.00 | 0.00 | 0.00 | 74 | 1012.1 |
| 20260505094903 | 59 | 352 | 7.0 | 14.0 | 0.00 | 0.00 | 0.00 | 74 | 1012.1 |
| 20260505094403 | 60 | 7 | 8.0 | 13.0 | 0.00 | 0.00 | 0.00 | 74 | 1012.2 |
| 20260505093904 | 59 | 346 | 5.0 | 13.0 | 0.00 | 0.00 | 0.00 | 77 | 1012.2 |
| 20260505093404 | 58 | 355 | 6.0 | 10.0 | 0.00 | 0.00 | 0.00 | 77 | 1012.2 |
| 20260505092903 | 57 | 16 | 6.0 | 14.0 | 0.00 | 0.00 | 0.00 | 77 | 1012.2 |
| 20260505092403 | 58 | 343 | 7.0 | 12.0 | 0.00 | 0.00 | 0.00 | 75 | 1012.2 |
| 20260505091903 | 58 | 359 | 8.0 | 13.0 | 0.00 | 0.00 | 0.00 | 74 | 1012.2 |
| 20260505091403 | 59 | 347 | 7.0 | 13.0 | 0.00 | 0.00 | 0.00 | 75 | 1012.2 |
| 20260505090903 | 58 | 343 | 6.0 | 9.0 | 0.00 | 0.00 | 0.00 | 75 | 1012.2 |
| 20260505090403 | 58 | 27 | 6.0 | 10.0 | 0.00 | 0.00 | 0.00 | 76 | 1012.4 |
| 20260505085904 | 58 | 354 | 5.0 | 14.0 | 0.00 | 0.00 | 0.00 | 76 | 1012.4 |
| 20260505085403 | 58 | 52 | 6.0 | 10.0 | 0.00 | 0.00 | 0.00 | 77 | 1012.4 |
| 20260505084404 | 58 | 327 | 6.0 | 13.0 | 0.00 | 0.00 | 0.00 | 79 | 1012.4 |
| 20260505083403 | 57 | 356 | 5.0 | 12.0 | 0.00 | 0.00 | 0.00 | 80 | 1012.4 |
| 20260505082904 | 57 | 357 | 8.0 | 13.0 | 0.00 | 0.00 | 0.00 | 81 | 1012.4 |
| 20260505082403 | 56 | 343 | 7.0 | 14.0 | 0.00 | 0.00 | 0.00 | 82 | 1012.3 |
| 20260505081903 | 56 | 337 | 7.0 | 9.0 | 0.00 | 0.00 | 0.00 | 82 | 1012.3 |
| 20260505081403 | 56 | 323 | 5.0 | 12.0 | 0.00 | 0.00 | 0.00 | 82 | 1012.3 |
| 20260505080404 | 56 | 342 | 5.0 | 10.0 | 0.00 | 0.00 | 0.00 | 83 | 1012.3 |
| 20260505075404 | 55 | 14 | 5.0 | 7.0 | 0.00 | 0.00 | 0.00 | 85 | 1012.3 |
| 20260505074403 | 54 | 13 | 5.0 | 7.0 | 0.00 | 0.00 | 0.00 | 86 | 1012.3 |
| 20260505073903 | 54 | 13 | 3.0 | 5.0 | 0.00 | 0.00 | 0.00 | 87 | 1012.4 |
| 20260505073403 | 53 | 35 | 2.0 | 5.0 | 0.00 | 0.00 | 0.00 | 88 | 1012.4 |
| 20260505072903 | 53 | 12 | 3.0 | 6.0 | 0.00 | 0.00 | 0.00 | 88 | 1012.4 |
| 20260505072403 | 53 | 25 | 4.0 | 7.0 | 0.00 | 0.00 | 0.00 | 88 | 1012.4 |
| 20260505071904 | 53 | 13 | 4.0 | 8.0 | 0.00 | 0.00 | 0.00 | 88 | 1012.4 |
| 20260505070904 | 53 | 28 | 5.0 | 8.0 | 0.00 | 0.00 | 0.00 | 89 | 1012.4 |
| 20260505070403 | 53 | 38 | 6.0 | 8.0 | 0.00 | 0.00 | 0.00 | 88 | 1012.4 |
| 20260505065903 | 53 | 27 | 4.0 | 7.0 | 0.00 | 0.00 | 0.00 | 89 | 1012.4 |
| 20260505065404 | 53 | 8 | 5.0 | 8.0 | 0.00 | 0.00 | 0.00 | 89 | 1012.5 |
| 20260505064903 | 53 | 21 | 5.0 | 9.0 | 0.00 | 0.00 | 0.00 | 89 | 1012.5 |
| 20260505064403 | 52 | 18 | 5.0 | 7.0 | 0.00 | 0.00 | 0.00 | 89 | 1012.6 |
| 20260505063903 | 52 | 23 | 5.0 | 8.0 | 0.00 | 0.00 | 0.00 | 89 | 1012.6 |
| 20260505063403 | 52 | 35 | 2.0 | 6.0 | 0.00 | 0.00 | 0.00 | 89 | 1012.6 |
| 20260505062404 | 52 | 29 | 5.0 | 8.0 | 0.00 | 0.00 | 0.00 | 89 | 1012.6 |
| 20260505061904 | 52 | 19 | 5.0 | 7.0 | 0.00 | 0.00 | 0.00 | 89 | 1012.6 |
| 20260505060903 | 52 | 13 | 5.0 | 9.0 | 0.00 | 0.00 | 0.00 | 89 | 1012.5 |
| 20260505055904 | 52 | 27 | 5.0 | 8.0 | 0.00 | 0.00 | 0.00 | 89 | 1012.5 |
| 20260505055403 | 52 | 17 | 6.0 | 12.0 | 0.00 | 0.00 | 0.00 | 89 | 1012.5 |
| 20260505054904 | 53 | 354 | 6.0 | 10.0 | 0.00 | 0.00 | 0.00 | 89 | 1012.3 |
| 20260505054403 | 53 | 14 | 3.0 | 9.0 | 0.00 | 0.00 | 0.00 | 89 | 1012.3 |
| 20260505053903 | 53 | 15 | 5.0 | 7.0 | 0.00 | 0.00 | 0.00 | 89 | 1012.3 |
| 20260505052904 | 53 | 7 | 3.0 | 6.0 | 0.00 | 0.00 | 0.00 | 89 | 1012.3 |
| 20260505052404 | 53 | 26 | 3.0 | 6.0 | 0.00 | 0.00 | 0.00 | 89 | 1012.3 |
| 20260505051904 | 53 | 33 | 3.0 | 7.0 | 0.00 | 0.00 | 0.00 | 89 | 1012.2 |
| 20260505051403 | 53 | 22 | 3.0 | 6.0 | 0.00 | 0.00 | 0.00 | 89 | 1012.2 |
| 20260505050403 | 53 | 10 | 3.0 | 7.0 | 0.00 | 0.00 | 0.00 | 89 | 1012.2 |
| 20260505041403 | 54 | 19 | 5.0 | 7.0 | 0.00 | 0.00 | 0.00 | 89 | 1012.5 |
| 20260505040903 | 54 | 23 | 5.0 | 9.0 | 0.00 | 0.00 | 0.00 | 89 | 1012.5 |
| 20260505040403 | 54 | 13 | 3.0 | 6.0 | 0.00 | 0.00 | 0.00 | 89 | 1012.5 |
| 20260505035903 | 54 | 7 | 2.0 | 7.0 | 0.00 | 0.00 | 0.00 | 89 | 1012.5 |
| 20260505035403 | 54 | 21 | 3.0 | 6.0 | 0.00 | 0.00 | 0.00 | 89 | 1012.5 |
| 20260505034903 | 54 | 26 | 2.0 | 5.0 | 0.00 | 0.00 | 0.00 | 90 | 1012.5 |
| 20260505034403 | 54 | 9 | 4.0 | 7.0 | 0.00 | 0.00 | 0.00 | 90 | 1012.5 |
| 20260505033404 | 54 | 25 | 0.0 | 0.0 | 0.00 | 0.00 | 0.00 | 90 | 1012.5 |
| 20260505032903 | 54 | 25 | 0.0 | 0.0 | 0.00 | 0.00 | 0.00 | 90 | 1012.5 |
| 20260505032403 | 54 | 26 | 0.0 | 0.0 | 0.00 | 0.00 | 0.00 | 90 | 1012.5 |
| 20260505031904 | 54 | 28 | 0.0 | 0.0 | 0.00 | 0.00 | 0.00 | 89 | 1012.5 |
| 20260505031404 | 54 | 38 | 0.0 | 0.0 | 0.00 | 0.00 | 0.00 | 90 | 1012.6 |
| 20260505030904 | 54 | 41 | 0.0 | 0.0 | 0.00 | 0.00 | 0.00 | 90 | 1012.6 |
| 20260505030404 | 54 | 42 | 0.0 | 0.0 | 0.00 | 0.00 | 0.00 | 90 | 1012.6 |
| 20260505025403 | 54 | 50 | 0.0 | 1.0 | 0.00 | 0.00 | 0.00 | 90 | 1012.6 |
| 20260505024904 | 54 | 49 | 0.0 | 2.0 | 0.00 | 0.00 | 0.00 | 90 | 1012.5 |
| 20260505024404 | 54 | 50 | 1.0 | 3.0 | 0.00 | 0.00 | 0.00 | 90 | 1012.5 |
| 20260505023903 | 54 | 57 | 1.0 | 5.0 | 0.00 | 0.00 | 0.00 | 90 | 1012.6 |
| 20260505022903 | 54 | 42 | 2.0 | 5.0 | 0.00 | 0.00 | 0.00 | 90 | 1012.6 |
| 20260505022403 | 54 | 32 | 3.0 | 5.0 | 0.00 | 0.00 | 0.00 | 90 | 1012.6 |
| 20260505021903 | 54 | 34 | 3.0 | 6.0 | 0.00 | 0.00 | 0.00 | 91 | 1012.6 |
| 20260505021403 | 54 | 35 | 3.0 | 6.0 | 0.00 | 0.00 | 0.00 | 91 | 1012.6 |
| 20260505020903 | 54 | 30 | 2.0 | 6.0 | 0.00 | 0.00 | 0.00 | 91 | 1012.6 |
| 20260505020403 | 55 | 29 | 3.0 | 5.0 | 0.00 | 0.00 | 0.00 | 91 | 1012.7 |
| 20260505015904 | 55 | 41 | 3.0 | 5.0 | 0.00 | 0.00 | 0.00 | 91 | 1012.7 |
| 20260505015403 | 55 | 18 | 2.0 | 5.0 | 0.00 | 0.00 | 0.00 | 91 | 1013.0 |
| 20260505014403 | 55 | 33 | 2.0 | 5.0 | 0.00 | 0.00 | 0.00 | 91 | 1013.0 |
| 20260505013904 | 55 | 101 | 0.0 | 1.0 | 0.00 | 0.00 | 0.00 | 91 | 1013.0 |
| 20260505013403 | 55 | 101 | 1.0 | 2.0 | 0.00 | 0.00 | 0.00 | 91 | 1013.0 |
| 20260505012904 | 55 | 60 | 1.0 | 3.0 | 0.00 | 0.00 | 0.00 | 91 | 1013.0 |
| 20260505012404 | 55 | 100 | 0.0 | 3.0 | 0.00 | 0.00 | 0.00 | 91 | 1013.0 |
| 20260505011903 | 55 | 52 | 2.0 | 5.0 | 0.00 | 0.00 | 0.00 | 91 | 1013.3 |
| 20260505010903 | 55 | 10 | 0.0 | 5.0 | 0.00 | 0.00 | 0.00 | 91 | 1013.3 |
| 20260505005904 | 55 | 16 | 0.0 | 0.0 | 0.00 | 0.00 | 0.00 | 92 | 1013.3 |
| 20260505005404 | 55 | 16 | 0.0 | 0.0 | 0.00 | 0.00 | 0.00 | 91 | 1013.3 |
| 20260505004903 | 55 | 16 | 0.0 | 0.0 | 0.00 | 0.00 | 0.00 | 91 | 1013.3 |
| 20260505004404 | 55 | 32 | 0.0 | 0.0 | 0.00 | 0.00 | 0.00 | 91 | 1013.3 |
| 20260505003903 | 55 | 33 | 0.0 | 0.0 | 0.00 | 0.00 | 0.00 | 91 | 1013.3 |
| 20260505003403 | 55 | 34 | 0.0 | 0.0 | 0.00 | 0.00 | 0.00 | 91 | 1013.3 |
| 20260505002904 | 55 | 34 | 0.0 | 0.0 | 0.00 | 0.00 | 0.00 | 91 | 1013.3 |
| 20260505002404 | 55 | 35 | 0.0 | 0.0 | 0.00 | 0.00 | 0.00 | 91 | 1013.3 |
| 20260505001903 | 55 | 41 | 0.0 | 0.0 | 0.00 | 0.00 | 0.00 | 91 | 1013.3 |
| 20260505001403 | 55 | 37 | 0.0 | 0.0 | 0.00 | 0.00 | 0.00 | 91 | 1013.2 |
| 20260505000904 | 55 | 50 | 0.0 | 0.0 | 0.00 | 0.00 | 0.00 | 91 | 1013.2 |
| 20260505000405 | 55 | 19 | 0.0 | 0.0 | 0.00 | 0.00 | 0.00 | 91 | 1013.4 |
| 20260504235904 | 55 | 29 | 0.0 | 0.0 | 0.00 | 0.00 | 0.00 | 91 | 1013.4 |
| 20260504235404 | 55 | 32 | 0.0 | 0.0 | 0.00 | 0.00 | 0.00 | 91 | 1013.4 |
| 20260504233903 | 55 | 32 | 0.0 | 0.0 | 0.00 | 0.00 | 0.00 | 91 | 1013.4 |
| 20260504233403 | 55 | 32 | 0.0 | 0.0 | 0.00 | 0.00 | 0.00 | 91 | 1013.4 |
| 20260504232903 | 56 | 32 | 0.0 | 0.0 | 0.00 | 0.00 | 0.00 | 91 | 1013.4 |
| 20260504231903 | 56 | 32 | 0.0 | 0.0 | 0.00 | 0.00 | 0.00 | 91 | 1013.4 |
| 20260504231403 | 56 | 32 | 0.0 | 0.0 | 0.00 | 0.00 | 0.00 | 91 | 1013.4 |
| 20260504230904 | 56 | 25 | 0.0 | 0.0 | 0.00 | 0.00 | 0.00 | 91 | 1013.4 |
| 20260504230403 | 56 | 14 | 0.0 | 0.0 | 0.00 | 0.00 | 0.00 | 90 | 1013.4 |
| 20260504225904 | 56 | 13 | 0.0 | 0.0 | 0.00 | 0.00 | 0.00 | 90 | 1013.4 |
| 20260504224904 | 56 | 11 | 0.0 | 0.0 | 0.00 | 0.00 | 0.00 | 90 | 1013.6 |
| 20260504224403 | 56 | 10 | 0.0 | 0.0 | 0.00 | 0.00 | 0.00 | 90 | 1013.6 |
| 20260504223903 | 56 | 10 | 0.0 | 0.0 | 0.00 | 0.00 | 0.00 | 90 | 1013.6 |
| 20260504222904 | 56 | 312 | 0.0 | 0.0 | 0.00 | 0.00 | 0.00 | 89 | 1013.6 |
| 20260504222404 | 56 | 13 | 0.0 | 0.0 | 0.00 | 0.00 | 0.00 | 89 | 1013.6 |
| 20260504221903 | 57 | 19 | 2.0 | 3.0 | 0.00 | 0.00 | 0.00 | 89 | 1013.6 |
| 20260504221403 | 57 | 2 | 1.0 | 5.0 | 0.00 | 0.00 | 0.00 | 89 | 1013.7 |
| 20260504220904 | 57 | 14 | 2.0 | 6.0 | 0.00 | 0.00 | 0.00 | 89 | 1013.7 |
| 20260504215904 | 57 | 17 | 3.0 | 6.0 | 0.00 | 0.00 | 0.00 | 88 | 1013.6 |
| 20260504215404 | 57 | 2 | 4.0 | 7.0 | 0.00 | 0.00 | 0.00 | 88 | 1013.7 |
| 20260504214904 | 57 | 20 | 4.0 | 6.0 | 0.00 | 0.00 | 0.00 | 88 | 1013.7 |
| 20260504214403 | 57 | 26 | 2.0 | 3.0 | 0.00 | 0.00 | 0.00 | 88 | 1013.7 |
| 20260504213903 | 57 | 47 | 2.0 | 5.0 | 0.00 | 0.00 | 0.00 | 88 | 1013.7 |
| 20260504213403 | 57 | 36 | 1.0 | 3.0 | 0.00 | 0.00 | 0.00 | 88 | 1013.7 |
| 20260504212403 | 57 | 4 | 0.0 | 3.0 | 0.00 | 0.00 | 0.00 | 88 | 1013.7 |
| 20260504211904 | 57 | 1 | 2.0 | 5.0 | 0.00 | 0.00 | 0.00 | 87 | 1013.6 |
| 20260504210904 | 57 | 31 | 0.0 | 0.0 | 0.00 | 0.00 | 0.00 | 87 | 1013.6 |
| 20260504210404 | 57 | 31 | 0.0 | 0.0 | 0.00 | 0.00 | 0.00 | 86 | 1013.6 |
| 20260504205903 | 57 | 32 | 0.0 | 0.0 | 0.00 | 0.00 | 0.00 | 86 | 1013.6 |
| 20260504205403 | 57 | 37 | 0.0 | 0.0 | 0.00 | 0.00 | 0.00 | 86 | 1013.6 |
| 20260504204904 | 57 | 304 | 0.0 | 0.0 | 0.00 | 0.00 | 0.00 | 85 | 1013.6 |
| 20260504204404 | 57 | 304 | 0.0 | 0.0 | 0.00 | 0.00 | 0.00 | 85 | 1013.6 |
| 20260504203903 | 56 | 306 | 0.0 | 0.0 | 0.00 | 0.00 | 0.00 | 84 | 1013.6 |
| 20260504203403 | 57 | 306 | 0.0 | 0.0 | 0.00 | 0.00 | 0.00 | 84 | 1013.5 |
| 20260504202904 | 57 | 307 | 0.0 | 0.0 | 0.00 | 0.00 | 0.00 | 84 | 1013.5 |
| 20260504202403 | 57 | 307 | 0.0 | 0.0 | 0.00 | 0.00 | 0.00 | 84 | 1013.5 |
| 20260504201404 | 57 | 307 | 0.0 | 0.0 | 0.00 | 0.00 | 0.00 | 83 | 1013.5 |
| 20260504200904 | 57 | 306 | 0.0 | 0.0 | 0.00 | 0.00 | 0.00 | 83 | 1013.5 |
| 20260504200404 | 57 | 306 | 0.0 | 0.0 | 0.00 | 0.00 | 0.00 | 83 | 1013.5 |
| 20260504195903 | 57 | 306 | 0.0 | 0.0 | 0.00 | 0.00 | 0.00 | 83 | 1013.5 |
| 20260504194903 | 57 | 306 | 0.0 | 0.0 | 0.00 | 0.00 | 0.00 | 83 | 1013.5 |
| 20260504194404 | 57 | 306 | 1.0 | 3.0 | 0.00 | 0.00 | 0.00 | 83 | 1013.5 |
| 20260504193404 | 57 | 310 | 2.0 | 3.0 | 0.00 | 0.00 | 0.00 | 83 | 1013.0 |